Marathon, FL

4:25 AM EDT on March 28, 2017 (GMT -0400)
Florida Keys Marathon

Weather History for KMTH - February, 2014

Change the Weather History Date:

Friday, February 7, 2014

  Actual Average Record
Temperature  
Mean Temperature 78 °F 71 °F  
Max Temperature 84 °F 77 °F 88 °F (2008)
Min Temperature 72 °F 66 °F 57 °F (2016)
Degree Days  
Heating Degree Days 0 1  
Month to date heating degree days 0 3  
Since 1 July heating degree days 34 62  
Cooling Degree Days 13 7  
Month to date cooling degree days 101 44  
Year to date cooling degree days 285 225  
Growing Degree Days 28 (Base 50)    
Moisture  
Dew Point 70 °F    
Average Humidity 76    
Maximum Humidity 87    
Minimum Humidity 65    
Precipitation  
Precipitation T in 0.07 in 0.22 in (2012)
Month to date precipitation T 0.44  
Year to date precipitation 3.29 2.05  
Snow  
Snow 0.00 in - - ()
Month to date snowfall 0.0  
Since 1 July snowfall 0.0  
Snow Depth 0.00 in    
Sea Level Pressure  
Sea Level Pressure 30.07 in    
Wind  
Wind Speed 5 mph (ESE)    
Max Wind Speed 10 mph    
Max Gust Speed 15 mph    
Visibility 10 miles    
Events      
T = Trace of Precipitation, MM = Missing Value Source: NWS Daily Summary

Daily Weather History Graph

Daily Weather History Graph

Search for Another Location

Airport or City:

Trip Planner

Search our weather history database for the weather conditions in past years. The results will help you decide how hot, cold, wet, or windy it might be!

Date:

Astronomy

Feb. 07, 2014 Rise Set
Actual Time 7:03 AM EST 6:13 PM EST
Civil Twilight 6:39 AM EST 6:37 PM EST
Nautical Twilight 6:12 AM EST 7:04 PM EST
Astronomical Twilight 5:45 AM EST 7:31 PM EST
Moon 12:30 PM EST (2/7) 1:13 AM EST (2/7)
Length of Visible Light 11h 57m
Length of Day
11h 10m
First Quarter, 59% of the Moon is Illuminated
Feb 7
First Quarter
Feb 14
Full
Feb 22
Last Quarter
Mar 1
New
Mar 8
First Quarter

Hourly Weather History & Observations

Time (EST) Temp. Heat Index Dew Point Humidity Pressure Visibility Wind Dir Wind Speed Gust Speed Precip Events Conditions
12:53 AM 75.9 °F - 69.1 °F 79% 30.06 in 10.0 mi ESE 4.6 mph - N/A   Scattered Clouds
1:14 AM 77.0 °F - 70.0 °F 79% 30.06 in 10.0 mi SE 6.9 mph - N/A   Mostly Cloudy
1:30 AM 77.0 °F - 69.1 °F 76% 30.06 in 10.0 mi SE 5.8 mph - N/A   Scattered Clouds
1:53 AM 75.9 °F - 70.0 °F 82% 30.05 in 10.0 mi ESE 4.6 mph - N/A   Clear
2:53 AM 75.0 °F - 70.0 °F 84% 30.04 in 10.0 mi ESE 4.6 mph - N/A   Clear
3:53 AM 73.0 °F - 70.0 °F 90% 30.04 in 10.0 mi Calm Calm - N/A   Partly Cloudy
4:53 AM 73.0 °F - 70.0 °F 90% 30.05 in 10.0 mi Calm Calm - N/A   Scattered Clouds
5:04 AM 73.0 °F - 70.0 °F 90% 30.05 in 10.0 mi Calm Calm - N/A   Mostly Cloudy
5:15 AM 73.9 °F - 70.0 °F 87% 30.04 in 10.0 mi Calm Calm - N/A   Scattered Clouds
5:22 AM 73.9 °F - 71.1 °F 91% 30.05 in 10.0 mi SE 4.6 mph - N/A   Mostly Cloudy
5:40 AM 75.9 °F - 71.1 °F 85% 30.05 in 10.0 mi SE 3.5 mph - N/A   Scattered Clouds
5:53 AM 75.9 °F - 70.0 °F 82% 30.05 in 10.0 mi Calm Calm - N/A   Partly Cloudy
6:53 AM 75.9 °F - 70.0 °F 82% 30.07 in 10.0 mi Variable 3.5 mph - N/A   Partly Cloudy
7:53 AM 77.0 °F - 71.1 °F 82% 30.09 in 10.0 mi SE 3.5 mph - N/A   Partly Cloudy
8:53 AM 78.1 °F - 71.1 °F 79% 30.10 in 10.0 mi SE 5.8 mph - 0.00 in   Overcast
9:53 AM 81.0 °F 84.4 °F 70.0 °F 69% 30.11 in 10.0 mi SE 8.1 mph - N/A   Partly Cloudy
10:53 AM 82.0 °F 85.9 °F 70.0 °F 67% 30.12 in 10.0 mi SSE 8.1 mph - N/A   Clear
11:53 AM 82.9 °F 87.5 °F 71.1 °F 67% 30.11 in 10.0 mi SE 6.9 mph - N/A   Clear
12:53 PM 82.9 °F 87.5 °F 71.1 °F 67% 30.08 in 10.0 mi Variable 6.9 mph - N/A   Clear
1:53 PM 82.9 °F 87.0 °F 70.0 °F 65% 30.06 in 10.0 mi SSE 6.9 mph - N/A   Clear
2:53 PM 82.0 °F 86.3 °F 71.1 °F 69% 30.05 in 10.0 mi Variable 4.6 mph - N/A   Partly Cloudy
3:53 PM 81.0 °F 84.9 °F 71.1 °F 72% 30.04 in 10.0 mi Variable 4.6 mph - N/A   Clear
4:53 PM 80.1 °F 83.2 °F 70.0 °F 71% 30.05 in 10.0 mi Variable 4.6 mph - N/A   Clear
5:53 PM 79.0 °F - 70.0 °F 74% 30.06 in 10.0 mi East 5.8 mph - N/A   Partly Cloudy
6:53 PM 77.0 °F - 69.1 °F 76% 30.06 in 10.0 mi East 4.6 mph - N/A   Clear
7:53 PM 77.0 °F - 70.0 °F 79% 30.07 in 10.0 mi East 5.8 mph - N/A   Clear
8:53 PM 75.9 °F - 68.0 °F 76% 30.08 in 10.0 mi East 4.6 mph - N/A   Clear
9:53 PM 75.9 °F - 69.1 °F 79% 30.09 in 10.0 mi ENE 4.6 mph - N/A   Clear
10:53 PM 75.9 °F - 70.0 °F 82% 30.09 in 10.0 mi East 5.8 mph - N/A   Partly Cloudy
11:53 PM 75.9 °F - 70.0 °F 82% 30.09 in 10.0 mi East 5.8 mph - N/A   Scattered Clouds